[[{"header":{"parameterUnit":"m.s-1","parameterCategory":1,"la1":30.2991,"la2":30.254,"lo1":-89.0895,"lo2":-89.0444,"dy":0.0017,"dx":0.0017,"nx":28,"ny":28,"refTime":"2024-08-05T09:00:00:Z","depth":0,"parameterNumber":2,"parameterNumberName":"U-component_of_WINDS"},"data":[0,0,0,0,0,0,0,0,0,0,0,0,0,0,0,0,0,0,0,0,0,0,0,0,0,0,0,0,0,0,0,0,0,0,0,0,0,0,0,0,0,0,0,0,0,0,0,0,0,0,0,0,0,0,0,0,0,0,0.5431,0.543,0,0.5343,0.5342,0.5341,0.5301,0.5301,0.5301,0.5301,0.5207,0.5204,0.5202,0,0,0,0,0,0,0,0,0,0,0,0,0,0.5561,0.5559,0.5431,0.543,0.5429,0.5343,0.5342,0.534,0.5301,0.5301,0.5301,0.5301,0.5208,0.5205,0.5201,0,0,0,0,0,0,0,0,0,0,0,0,0,0.5492,0.5558,0.5431,0.5399,0.5395,0.5343,0.5341,0.534,0.5301,0.5301,0.5301,0.5301,0.5209,0.5205,0.5201,0.5174,0,0,0.5189,0.5187,0,0,0,0,0,0,0,0,0.5496,0.5487,0.5404,0.5401,0.5396,0.5333,0.5353,0.5284,0.5301,0.5336,0.5301,0.5301,0.5248,0.5241,0.5224,0.5169,0.5165,0.5189,0.5186,0.5185,0.5184,0,0,0,0,0,0,0,0.55,0.549,0.5396,0.5403,0.5398,0.5387,0.5378,0.534,0.5292,0.5333,0.533,0.532,0.5246,0.5228,0.5222,0.5164,0.5189,0.5185,0.5183,0.5181,0.5082,0.5081,0,0,0,0,0,0,0.5511,0.5495,0.5398,0.5393,0.5448,0.5385,0.5374,0.5353,0.5293,0.5284,0.532,0.5319,0.5235,0.5226,0.5218,0.5182,0.5185,0.5181,0.5179,0.5082,0.5082,0.5081,0,0,0,0,0,0,0.5514,0.5503,0.5402,0.5443,0.5429,0.5382,0.5359,0.5351,0.5333,0.5283,0.5274,0.5311,0.5234,0.5224,0.5185,0.5178,0.5179,0.5176,0.5082,0.5082,0.5081,0.511,0,0,0,0,0,0,0.5518,0.5504,0.5494,0.5443,0.5427,0.5372,0.5359,0.5349,0.5327,0.5324,0.5272,0.5263,0.5234,0.5191,0.5181,0.5173,0.5173,0.5083,0.5082,0.5082,0.5109,0.511,0.5111,0,0,0,0,0,0.5523,0.5505,0.5494,0.5483,0.5414,0.5372,0.5362,0.533,0.5327,0.5315,0.5283,0.5265,0.5181,0.5188,0.5176,0.5166,0.5083,0.5082,0.5082,0.5109,0.511,0.5111,0,0,0,0,0,0,0.5555,0.5498,0.5485,0.545,0.5416,0.5365,0.535,0.5332,0.5298,0.5296,0.5257,0.5245,0.521,0.5184,0.5193,0.5137,0.513,0.5127,0.5155,0.5156,0.5157,0.5163,0.5169,0,0,0,0,0,0.5558,0.553,0.5481,0.5455,0.5438,0.5397,0.5377,0.5356,0.5318,0.5303,0.5268,0.5232,0.5197,0.5175,0.514,0.5105,0.5093,0.5093,0.5094,0.5095,0.5093,0.5072,0.5071,0.5079,0.5079,0.5079,0,0,0.5564,0.5529,0.5513,0.546,0.5431,0.5401,0.5385,0.5354,0.5331,0.5298,0.526,0.5233,0.519,0.5153,0.5135,0.513,0.5088,0.5094,0.5095,0.5092,0.5071,0.507,0.507,0.5079,0.5079,0.5079,0,0,0.5559,0.5531,0.5506,0.5478,0.5435,0.5408,0.5402,0.5353,0.5335,0.5296,0.527,0.5242,0.5183,0.5153,0.513,0.5115,0.5096,0.5105,0.511,0.509,0.5089,0.5089,0.5083,0.5081,0.5103,0.5103,0.5103,0,0.5572,0.5527,0.5495,0.5466,0.5443,0.5413,0.5387,0.536,0.5308,0.5292,0.5288,0.5214,0.5182,0.5138,0.5135,0.5117,0.5108,0.511,0.5093,0.5091,0.509,0.5084,0.5082,0.5104,0.5104,0.5104,0.5104,0,0.5544,0.5514,0.5499,0.545,0.5426,0.5398,0.5361,0.5339,0.532,0.5293,0.5254,0.5215,0.5172,0.516,0.514,0.5113,0.5111,0.51,0.5093,0.5091,0.5085,0.5082,0.5106,0.5105,0.5105,0.5105,0,0,0.5557,0.5492,0.5487,0.5464,0.5415,0.539,0.5361,0.532,0.5302,0.5267,0.5241,0.5192,0.5182,0.5156,0.5133,0.5115,0.5105,0.5106,0.5105,0.5107,0.5072,0.508,0.5078,0.5093,0.5093,0.5092,0.5076,0,0.5545,0.5493,0.5463,0.5423,0.5394,0.5365,0.534,0.5306,0.528,0.5251,0.5221,0.5187,0.5177,0.5161,0.5143,0.5111,0.5098,0.5111,0.5067,0.5066,0.5079,0.5075,0.5083,0.507,0.5073,0.5073,0.5072,0,0.5525,0.5492,0.5449,0.5403,0.539,0.5367,0.5328,0.53,0.5261,0.5243,0.5215,0.5192,0.5159,0.5155,0.5108,0.5118,0.5098,0.508,0.5078,0.5072,0.5069,0.5068,0.5065,0.5063,0.5068,0.5068,0.5069,0,0.5538,0.5482,0.5449,0.5431,0.5377,0.5362,0.5338,0.53,0.5277,0.5242,0.5227,0.5188,0.5166,0.5136,0.5103,0.5103,0.5059,0.5053,0.5043,0.5044,0.5034,0.5035,0.5027,0.5023,0.5023,0.5023,0.5023,0,0.5528,0.5502,0.5455,0.5434,0.5405,0.5371,0.5342,0.5316,0.5282,0.5255,0.5228,0.5203,0.5161,0.513,0.5104,0.5069,0.5059,0.5043,0.5036,0.5045,0.5047,0.5031,0.5031,0.5022,0.5022,0.5022,0.5022,0,0.5537,0.5504,0.5466,0.5419,0.5406,0.5386,0.5345,0.5323,0.5297,0.5263,0.5253,0.521,0.5173,0.5137,0.5087,0.5069,0.5034,0.5025,0.5048,0.5044,0.5036,0.5037,0.5016,0.5012,0.5012,0.5012,0.5012,0,0.5532,0.5512,0.5463,0.5444,0.5421,0.5391,0.5368,0.5333,0.531,0.5265,0.5249,0.521,0.5177,0.5119,0.5082,0.5044,0.5033,0.5029,0.5027,0.5037,0.5033,0.5034,0.5032,0.503,0.503,0.503,0.503,0,0.5528,0.5513,0.5482,0.5445,0.5419,0.5388,0.5356,0.5341,0.53,0.5276,0.5238,0.5213,0.5163,0.5124,0.5081,0.5056,0.5036,0.5031,0.5027,0.5035,0.5049,0.5041,0.505,0.5032,0.5031,0.5031,0.5031,0.5031,0.5529,0.551,0.5473,0.5439,0.5412,0.5382,0.536,0.5331,0.53,0.5257,0.5238,0.52,0.5161,0.5102,0.5076,0.5045,0.504,0.5034,0.5032,0.5031,0.5033,0.5055,0.5037,0.5037,0.5037,0.5037,0.5037,0,0.5523,0.5497,0.5467,0.5424,0.5397,0.5382,0.5346,0.5324,0.5292,0.5258,0.5226,0.5183,0.5146,0.5107,0.5067,0.5049,0.5039,0.504,0.5041,0.5035,0.504,0.5048,0.5049,0.5049,0.5049,0.5049,0.5049,0.5049,0.5516,0.5483,0.5464,0.5416,0.5391,0.5355,0.5335,0.5308,0.528,0.5234,0.5203,0.5179,0.5142,0.51,0.5064,0.5054,0.504,0.5043,0.503,0.5035,0.5035,0.5034,0.5041,0.5041,0.5041,0.5027,0.5027,0.5027]},{"header":{"parameterUnit":"m.s-1","parameterCategory":1,"la1":30.2991,"la2":30.254,"lo1":-89.0895,"lo2":-89.0444,"dy":0.0017,"dx":0.0017,"nx":28,"ny":28,"refTime":"2024-08-05T09:00:00:Z","depth":0,"parameterNumber":3,"parameterNumberName":"V-component_of_WINDS"},"data":[0,0,0,0,0,0,0,0,0,0,0,0,0,0,0,0,0,0,0,0,0,0,0,0,0,0,0,0,0,0,0,0,0,0,0,0,0,0,0,0,0,0,0,0,0,0,0,0,0,0,0,0,0,0,0,0,0,0,-2.7495,-2.7496,0,-2.7572,-2.7573,-2.7574,-2.7547,-2.7546,-2.7544,-2.7542,-2.7618,-2.7621,-2.7625,0,0,0,0,0,0,0,0,0,0,0,0,0,-2.7322,-2.7326,-2.7495,-2.7496,-2.7497,-2.7572,-2.7573,-2.7574,-2.7548,-2.7546,-2.7543,-2.7542,-2.7617,-2.7621,-2.7625,0,0,0,0,0,0,0,0,0,0,0,0,0,-2.7398,-2.7327,-2.7495,-2.7493,-2.7494,-2.7572,-2.7573,-2.7575,-2.7548,-2.7545,-2.7543,-2.7541,-2.7615,-2.7621,-2.7626,-2.771,0,0,-2.7642,-2.7645,0,0,0,0,0,0,0,0,-2.7394,-2.7405,-2.7492,-2.7493,-2.7494,-2.7548,-2.754,-2.762,-2.7549,-2.7527,-2.7542,-2.7539,-2.7596,-2.7603,-2.7623,-2.7713,-2.7717,-2.7643,-2.7646,-2.7648,-2.765,0,0,0,0,0,0,0,-2.7389,-2.7401,-2.7526,-2.7494,-2.7495,-2.7487,-2.7495,-2.7555,-2.7575,-2.7529,-2.7527,-2.7537,-2.7596,-2.7618,-2.7625,-2.7718,-2.7643,-2.7647,-2.7651,-2.7653,-2.7882,-2.7884,0,0,0,0,0,0,-2.7383,-2.7397,-2.7523,-2.7528,-2.7437,-2.7493,-2.7501,-2.7533,-2.7574,-2.7578,-2.7539,-2.7535,-2.761,-2.7618,-2.7627,-2.7729,-2.7648,-2.7653,-2.7656,-2.7879,-2.7882,-2.7885,0,0,0,0,0,0,-2.738,-2.7395,-2.752,-2.7462,-2.7477,-2.7498,-2.7534,-2.7536,-2.7557,-2.7582,-2.7585,-2.7558,-2.7608,-2.762,-2.769,-2.7731,-2.7656,-2.7661,-2.7875,-2.788,-2.7884,-2.7933,0,0,0,0,0,0,-2.7375,-2.7394,-2.7427,-2.7463,-2.7481,-2.7583,-2.7536,-2.7539,-2.7567,-2.7563,-2.76,-2.7604,-2.7607,-2.7682,-2.7695,-2.7737,-2.7665,-2.7872,-2.7877,-2.7882,-2.7928,-2.7938,-2.7947,0,0,0,0,0,-2.7369,-2.7436,-2.7428,-2.7444,-2.7522,-2.7585,-2.7595,-2.7598,-2.7571,-2.7603,-2.7619,-2.7603,-2.7725,-2.769,-2.7704,-2.7748,-2.7869,-2.7876,-2.7882,-2.7923,-2.7936,-2.7947,0,0,0,0,0,0,-2.7403,-2.7441,-2.7433,-2.7514,-2.7547,-2.758,-2.7622,-2.7612,-2.7652,-2.7646,-2.7648,-2.7656,-2.7729,-2.7745,-2.7706,-2.7832,-2.7793,-2.7802,-2.7819,-2.7831,-2.7841,-2.7836,-2.7669,0,0,0,0,0,-2.742,-2.7469,-2.7499,-2.7568,-2.7585,-2.7601,-2.7628,-2.7628,-2.7661,-2.7675,-2.7696,-2.7728,-2.7773,-2.7803,-2.7846,-2.793,-2.7937,-2.7967,-2.7977,-2.7985,-2.7994,-2.8039,-2.8053,-2.7906,-2.7906,-2.7906,0,0,-2.7456,-2.7482,-2.7513,-2.7576,-2.7601,-2.7651,-2.7612,-2.7666,-2.7703,-2.7682,-2.7751,-2.7767,-2.7803,-2.7881,-2.7916,-2.7897,-2.8036,-2.7993,-2.8,-2.8004,-2.8047,-2.8061,-2.8074,-2.7911,-2.791,-2.7909,0,0,-2.7546,-2.7571,-2.7632,-2.7659,-2.7698,-2.7708,-2.7723,-2.7758,-2.7769,-2.7838,-2.7823,-2.7866,-2.7945,-2.7971,-2.7995,-2.8097,-2.8083,-2.811,-2.8162,-2.8207,-2.8218,-2.8228,-2.8265,-2.8278,-2.8119,-2.8119,-2.8119,0,-2.7585,-2.7661,-2.7664,-2.772,-2.7748,-2.7733,-2.7794,-2.7819,-2.787,-2.7889,-2.7867,-2.7966,-2.7989,-2.8073,-2.8098,-2.8118,-2.8134,-2.8106,-2.8216,-2.8227,-2.8236,-2.8271,-2.8285,-2.8122,-2.8121,-2.8121,-2.8121,0,-2.7707,-2.7759,-2.7803,-2.7855,-2.7888,-2.7946,-2.7957,-2.799,-2.7987,-2.8,-2.807,-2.8097,-2.8146,-2.8166,-2.8163,-2.825,-2.8237,-2.8216,-2.8176,-2.8253,-2.8286,-2.83,-2.8126,-2.8125,-2.8124,-2.8123,0,0,-2.782,-2.7874,-2.789,-2.7913,-2.7956,-2.7996,-2.8053,-2.8103,-2.8131,-2.8166,-2.8214,-2.8282,-2.8263,-2.829,-2.829,-2.8329,-2.8409,-2.8303,-2.8304,-2.8322,-2.8506,-2.8522,-2.8537,-2.84,-2.8402,-2.8404,-2.8503,0,-2.7914,-2.8017,-2.8022,-2.8115,-2.8163,-2.815,-2.82,-2.8231,-2.8245,-2.8287,-2.8301,-2.8349,-2.832,-2.8337,-2.8375,-2.8391,-2.8445,-2.8384,-2.8444,-2.8446,-2.8436,-2.8554,-2.8571,-2.8663,-2.8516,-2.8518,-2.852,0,-2.8038,-2.8079,-2.8177,-2.8214,-2.8235,-2.828,-2.8326,-2.8367,-2.8401,-2.8408,-2.8439,-2.8434,-2.8492,-2.845,-2.853,-2.8488,-2.8513,-2.8525,-2.8529,-2.8534,-2.8488,-2.8564,-2.8692,-2.8706,-2.854,-2.8538,-2.8537,0,-2.8112,-2.8192,-2.8261,-2.8281,-2.8325,-2.8358,-2.8377,-2.841,-2.8439,-2.8479,-2.8498,-2.8543,-2.8568,-2.8603,-2.861,-2.8579,-2.869,-2.8649,-2.8697,-2.8697,-2.8721,-2.872,-2.8856,-2.8737,-2.8737,-2.8737,-2.8736,0,-2.8217,-2.8277,-2.8295,-2.8337,-2.8405,-2.841,-2.8476,-2.8493,-2.8523,-2.8568,-2.8559,-2.8601,-2.8607,-2.8651,-2.8657,-2.8722,-2.8733,-2.874,-2.8741,-2.8741,-2.8741,-2.8758,-2.8752,-2.874,-2.8739,-2.8739,-2.8738,0,-2.831,-2.8324,-2.8399,-2.8436,-2.8446,-2.8494,-2.8525,-2.8565,-2.8578,-2.8635,-2.8649,-2.8668,-2.8719,-2.873,-2.8789,-2.8793,-2.8872,-2.8866,-2.886,-2.886,-2.8908,-2.8903,-2.906,-2.9081,-2.8948,-2.8949,-2.895,0,-2.8376,-2.8423,-2.8465,-2.8495,-2.8517,-2.8566,-2.8596,-2.8603,-2.8635,-2.8679,-2.8714,-2.8765,-2.8805,-2.8888,-2.8906,-2.8952,-2.8948,-2.8999,-2.8954,-2.8953,-2.8949,-2.8946,-2.8951,-2.9008,-2.9009,-2.9011,-2.9012,0,-2.8493,-2.8498,-2.8543,-2.8591,-2.8628,-2.8665,-2.8701,-2.8726,-2.8738,-2.8774,-2.8827,-2.8859,-2.8921,-2.8971,-2.9017,-2.9036,-2.9026,-2.9026,-2.9039,-2.904,-2.9036,-2.9039,-2.8884,-2.9022,-2.9021,-2.902,-2.902,-2.9019,-2.8575,-2.8616,-2.8652,-2.8703,-2.8731,-2.8765,-2.8805,-2.8823,-2.8868,-2.892,-2.8921,-2.8979,-2.9013,-2.9074,-2.9097,-2.9141,-2.9125,-2.9145,-2.915,-2.9155,-2.9159,-2.9028,-2.915,-2.9149,-2.9149,-2.9149,-2.9149,0,-2.8691,-2.8714,-2.8761,-2.8812,-2.8852,-2.884,-2.8879,-2.8913,-2.8965,-2.8998,-2.9039,-2.91,-2.9148,-2.9171,-2.922,-2.9251,-2.9248,-2.9263,-2.9261,-2.9266,-2.9171,-2.9155,-2.9266,-2.9266,-2.9265,-2.9265,-2.9265,-2.9265,-2.8756,-2.8825,-2.8835,-2.8918,-2.894,-2.8998,-2.9021,-2.9053,-2.9079,-2.9149,-2.919,-2.9205,-2.9234,-2.9284,-2.9328,-2.9334,-2.9352,-2.937,-2.9374,-2.9284,-2.9272,-2.9261,-2.9246,-2.9374,-2.9374,-2.9465,-2.9466,-2.9466]}]]